Home   Weather   Casablanca   Past weeks

Flag for Morocco Past Weather in Casablanca, Morocco — Yesterday and Last 2 Weeks

Now
37 °F

Passing clouds.


Feels Like: 34 °F
Forecast: 49 / 62 °F
Wind: 5 mph from South

Location: Nouasseur

Current Time: Jan 18, 2017 at 6:14:48 am

Latest Report: Jan 18, 2017 at 5:30 am


Visibility: 6 mi

Pressure: 30.04 "Hg

Humidity: 100%

Dew Point: 37 °F

Location of CasablancaLocation

Past Weather in Casablanca — Graph

°F

Casablanca Temperature Yesterday

Maximum temperature yesterday: 63 °F (at 1:30 pm)
Minimum temperature yesterday: 32 °F (at 3:30 am)
Average temperature yesterday: 46 °F

High & Low Weather Summary for the Past Weeks

 TemperatureHumidityPressure
High72 °F (Jan 3, 1:00 pm)100% (Jan 5, 9:30 pm)30.36 "Hg (Jan 5, 9:30 pm)
Low32 °F (Jan 16, 6:30 am)19% (Jan 3, 2:30 pm)30.04 "Hg (Jan 18, 5:00 am)
Average52 °F74%30.24 "Hg
* Reported Jan 3 5:00 am — Jan 18 5:00 am, Casablanca, Weather by CustomWeather, © 2017

Note: Actual official high and low records may vary slightly from our data, if they occured in-between our weather recording intervals... More about our weather records

Advertising

Casablanca Weather History for the Previous 24 Hours

Scroll right to see more
 ConditionsComfort  
Time TempWeatherWind HumidityBarometerVisibility
5:00 am
Wed, Jan 18
37 °FPassing clouds.1 mph93%30.04 "Hg4 mi
4:00 am39 °FFog.3 mph93%30.07 "Hg3 mi
3:30 am39 °FFog.3 mph100%30.07 "Hg2 mi
3:00 am39 °FFog.5 mph100%30.07 "Hg1 mi
2:30 am41 °FFog.2 mph93%30.07 "Hg1 mi
2:00 am41 °FFog.5 mph93%30.07 "Hg1 mi
1:30 am41 °FFog.3 mph93%30.09 "Hg1 mi
1:00 am41 °FFog.5 mph93%30.09 "Hg1 mi
12:30 am43 °FFog.5 mph93%30.09 "Hg1 mi
12:00 am43 °FFog.5 mph93%30.09 "Hg1 mi
11:30 pm
Tue, Jan 17
43 °FFog.5 mph93%30.12 "Hg1 mi
11:00 pm43 °FFog.5 mph93%30.12 "Hg2 mi
10:30 pm43 °FFog.3 mph93%30.12 "Hg2 mi
10:00 pm43 °FPassing clouds.5 mph93%30.12 "Hg3 mi
9:30 pm45 °FPassing clouds.7 mph93%30.12 "Hg3 mi
9:00 pm46 °FPassing clouds.5 mph93%30.12 "Hg3 mi
8:30 pm48 °FPassing clouds.2 mph94%30.12 "Hg5 mi
8:00 pm52 °FPassing clouds.3 mph88%30.12 "Hg5 mi
7:30 pm52 °FClear.5 mph88%30.12 "HgN/A
7:00 pm52 °FClear.6 mph88%30.12 "Hg10 mi
6:30 pm54 °FClear.8 mph82%30.12 "Hg10 mi
6:00 pm55 °FClear.9 mph72%30.12 "Hg10 mi
5:30 pm59 °FClear.9 mph59%30.12 "Hg10 mi
5:00 pm59 °FClear.12 mph59%30.12 "Hg10 mi
4:30 pm61 °FSunny.13 mph55%30.12 "Hg10 mi
4:00 pm61 °FSunny.13 mph52%30.12 "Hg10 mi
3:30 pm63 °FPassing clouds.12 mph49%30.12 "HgN/A
3:00 pm63 °FPassing clouds.7 mph42%30.12 "HgN/A
2:30 pm63 °FSunny.7 mph39%30.12 "Hg10 mi
2:00 pm63 °FPassing clouds.7 mph42%30.12 "HgN/A
1:30 pm63 °FPassing clouds.7 mph39%30.15 "HgN/A
1:00 pm61 °FPassing clouds.5 mph42%30.15 "HgN/A
12:30 pm61 °FPassing clouds.3 mph39%30.18 "HgN/A
12:00 pm57 °FPassing clouds.3 mph44%30.18 "HgN/A
11:30 am57 °FPassing clouds.6 mph44%30.18 "HgN/A
11:00 am55 °FSunny.1 mph51%30.21 "Hg10 mi
10:30 am52 °FPassing clouds.3 mph58%30.21 "HgN/A
10:00 am46 °FPassing clouds.3 mph71%30.21 "HgN/A
9:30 am41 °FClear.1 mph81%30.21 "Hg5 mi
9:00 am37 °FClear.2 mph81%30.21 "Hg5 mi
8:30 am34 °FClear.3 mph87%30.21 "Hg4 mi
8:00 am32 °FClear.3 mph87%30.18 "Hg6 mi
7:30 am32 °FSunny.3 mph80%30.18 "Hg10 mi
7:00 am32 °FSunny.5 mph87%30.18 "Hg10 mi
6:30 am32 °FClear.5 mph87%30.18 "Hg10 mi
6:00 am32 °FClear.5 mph87%30.18 "Hg10 mi
Weather by CustomWeather, © 2017

See weather overviewHow to use our weather pages